Printer-friendly version

IAU Minor Planet Center

Minor Planet Center

MPEC 2006-O09 : 2006 OM1

The following Minor Planet Electronic Circular may be linked-to from your own Web pages, but must not otherwise be redistributed electronically.


Read MPEC 2006-O08 Read MPEC 2006-O10


M.P.E.C. 2006-O09                                Issued 2006 July 20, 17:49 UT

     The Minor Planet Electronic Circulars contain information on unusual
         minor planets and routine data on comets.  They are published
   on behalf of Commission 20 of the International Astronomical Union by the
          Minor Planet Center, Smithsonian Astrophysical Observatory,
                          Cambridge, MA 02138, U.S.A.

                  Supported in part by the Brinson Foundation
                  Supported in part by the TABASGO Foundation
             Prepared using the Tamkin Foundation Computer Network

                              MPC@CFA.HARVARD.EDU
          URL http://cfa-www.harvard.edu/iau/mpc.html  ISSN 1523-6714

                                   2006 OM1

Observations:
     K06O01M* C2006 07 18.75091 22 40 07.32 -47 04 56.5          18.7 V EO009E12
     K06O01M  C2006 07 18.76355 22 39 53.35 -47 02 09.9          18.8 V EO009E12
     K06O01M  C2006 07 18.77610 22 39 39.63 -46 59 25.3          18.7 V EO009E12
     K06O01M  C2006 07 18.78862 22 39 25.92 -46 56 39.9          18.5 V EO009E12
     K06O01M  C2006 07 18.79551 22 39 18.40 -46 55 08.1          19.3 V EO009E12
     K06O01M  C2006 07 18.79714 22 39 16.64 -46 54 46.1          18.5 V EO009E12
     K06O01M  C2006 07 18.79881 22 39 14.76 -46 54 24.0          18.9 V EO009E12
     K06O01M  C2006 07 18.80043 22 39 13.06 -46 54 03.6          19.4 V EO009E12
     K06O01M  C2006 07 18.80887 22 39 03.70 -46 52 08.7          19.0 V EO009E12
     K06O01M  C2006 07 18.81097 22 39 01.68 -46 51 43.7          19.1 V EO009E12
     K06O01M  C2006 07 18.81307 22 38 59.27 -46 51 14.5          18.8 V EO009E12
     K06O01M  C2006 07 18.81516 22 38 56.74 -46 50 45.5          18.9 V EO009E12
     K06O01M  C2006 07 19.69252 22 23 58.59 -43 29 05.5          18.4 V EO009E12
     K06O01M  C2006 07 19.69961 22 23 51.28 -43 27 23.4          18.5 V EO009E12
     K06O01M  C2006 07 19.72300 22 23 26.98 -43 21 42.6          18.8 V EO009E12
     K06O01M  C2006 07 19.72341 22 23 26.66 -43 21 37.2          18.5 V EO009E12
     K06O01M  C2006 07 19.72383 22 23 26.23 -43 21 31.8          18.4 V EO009E12
     K06O01M  C2006 07 20.23006 22 15 10.80 -41 16 33.1          18.0 R EO009I77
     K06O01M  C2006 07 20.23116 22 15 09.75 -41 16 16.5          17.9 R EO009I77
     K06O01M  C2006 07 20.23198 22 15 08.80 -41 16 03.4          18.0 R EO009I77
     K06O01M  C2006 07 20.65446 22 08 30.05 -39 27 01.0          18.5 V EO009E12
     K06O01M  C2006 07 20.66030 22 08 24.35 -39 25 28.3          18.5 V EO009E12

Observer details:
E12 Siding Spring Survey.  Observer G. J. Garradd.  Measurers E. C. Beshore,
    E. J. Christensen, G. J. Garradd, A. R. Gibbs, A. D. Grauer, R. E. Hill,
    R. A. Kowalski, S. M. Larson, R. H. McNaught.  0.5-m Uppsala Schmidt + CCD.
I77 CEAMIG-REA Observatory, Belo Horizonte.  Observers C. Jacques, E. Pimentel.
    Measurer C. Jacques.  0.30-m f/3.0 Schmidt-Cassegrain + CCD.

Orbital elements:
2006 OM1                                                 Earth MOID = 0.1011 AU
Epoch 2006 July 4.0 TT = JDT 2453920.5                  MPC
M   7.05573              (2000.0)            P               Q
n   0.46173924     Peri.  322.79595     +0.01223463     +0.89545157
a   1.6578231      Node   303.44830     -0.74012407     -0.29112871
e   0.3597252      Incl.   32.22984     -0.67235904     +0.33676484
P   2.13           H   21.8           G   0.15
From 21 observations 2006 July 18-20.

Ephemeris:
2006 OM1                 a,e,i = 1.66, 0.36, 32                  q = 1.0615
Date    TT    R. A. (2000) Decl.     Delta      r     Elong.  Phase     V
2006 07 14    00 12.29   -59 21.9    0.140    1.091   118.7    54.8    19.7
2006 07 24    21 22.98   -23 39.1    0.106    1.117   163.2    15.2    18.0
2006 08 03    20 06.60   +12 39.5    0.157    1.151   147.7    28.1    19.3
2006 08 13    19 35.83   +25 50.5    0.248    1.190   130.8    40.1    20.7
2006 08 23    19 23.95   +30 32.8    0.348    1.233   122.5    43.8    21.6

Gareth V. Williams           (C) Copyright 2006 MPC           M.P.E.C. 2006-O09

Read MPEC 2006-O08 Read MPEC 2006-O10


Our Web policy. Index to the CBAT/MPC/ICQ pages.


Valid HTML 4.01!